This demonstration page uses our WeatherBlox Daily Observations layout. Learn more.

Left ArrowRight Arrow

53.62937, 11.41316

Hourly Observations for April 27, 2021

Temp ( °F °C ) Dew Point ( °F °C ) Humidity (%) Winds ( mph kmh ) Pressure ( in mb ) Visibility ( mi km ) Precip ( " mm )
6:20 am 06:20 Mostly Sunny 27 -3 25 -4 93 93 ENE 2 4 30.04 1017 7 11 N/A
6:50 am 06:50 Mostly Sunny 30 -1 27 -3 86 86 Calm 30.04 1017 7 11 N/A
7:20 am 07:20 Mostly Sunny 32 0 27 -3 80 80 ENE 2 4 30.04 1017 7 11 N/A
7:50 am 07:50 Mostly Sunny 37 3 30 -1 75 75 VRB 2 4 30.03 1017 7 11 N/A
8:20 am 08:20 Mostly Sunny 41 5 30 -1 66 66 ESE 3 6 30.03 1017 7 11 N/A
8:50 am 08:50 Mostly Sunny 43 6 30 -1 61 61 SE 5 7 30.06 1018 7 11 N/A
9:20 am 09:20 Mostly Sunny 45 7 30 -1 57 57 SE 7 11 30.06 1018 7 11 N/A
9:50 am 09:50 Mostly Sunny 45 7 28 -2 53 53 ESE 6 9 30.03 1017 7 11 N/A
10:20 am 10:20 Mostly Sunny 46 8 27 -3 46 46 SE 7 11 30.03 1017 7 11 N/A
10:50 am 10:50 Mostly Sunny 48 9 25 -4 40 40 SE 7 11 30.03 1017 7 11 N/A
11:20 am 11:20 Mostly Sunny 48 9 23 -5 37 37 SE 7 11 30.03 1017 7 11 N/A
11:50 am 11:50 Mostly Sunny 50 10 23 -5 35 35 VRB 7 11 30.03 1017 7 11 N/A
12:20 pm 12:20 Mostly Sunny 50 10 23 -5 35 35 VRB 6 9 30.00 1016 7 11 N/A
12:50 pm 12:50 Mostly Sunny 50 10 21 -6 32 32 E 7 11 30.00 1016 7 11 N/A
1:20 pm 13:20 Mostly Sunny 50 10 21 -6 32 32 ESE 7 11 30.00 1016 7 11 N/A
1:50 pm 13:50 Mostly Sunny 52 11 18 -8 26 26 ESE 8 13 29.97 1015 7 11 N/A
2:20 pm 14:20 Mostly Sunny 52 11 19 -7 28 28 VRB 6 9 29.97 1015 7 11 N/A
2:50 pm 14:50 Mostly Sunny 54 12 19 -7 26 26 SE 9 15 29.97 1015 7 11 N/A
3:20 pm 15:20 Mostly Sunny 54 12 18 -8 24 24 E 12 19 29.94 1014 7 11 N/A
3:50 pm 15:50 Mostly Sunny 54 12 19 -7 26 26 E 10 17 29.94 1014 7 11 N/A
4:20 pm 16:20 Mostly Sunny 54 12 19 -7 26 26 E 13 20 29.94 1014 7 11 N/A
4:50 pm 16:50 Mostly Sunny 52 11 32 0 47 47 NE 16 26 29.94 1014 7 11 N/A
5:20 pm 17:20 Mostly Sunny 52 11 30 -1 44 44 NE 16 26 29.91 1013 7 11 N/A
5:50 pm 17:50 Mostly Sunny 50 10 30 -1 47 47 NE 16 26 29.91 1013 7 11 N/A
6:20 pm 18:20 Mostly Sunny 50 10 30 -1 47 47 ENE 16 26 29.91 1013 7 11 N/A
6:50 pm 18:50 Mostly Sunny 48 9 30 -1 50 50 NE 17 28 29.92 1013 7 11 N/A
7:20 pm 19:20 Mostly Sunny 48 9 30 -1 50 50 NE 16 26 29.92 1013 7 11 N/A
7:50 pm 19:50 Mostly Sunny 46 8 30 -1 53 53 NE 13 20 29.92 1013 7 11 N/A
8:20 pm 20:20 Mostly Sunny 45 7 32 0 61 61 NE 13 20 29.92 1013 7 11 N/A
8:50 pm 20:50 Mostly Clear 43 6 32 0 66 66 NE 12 19 29.92 1013 7 11 N/A
9:20 pm 21:20 Mostly Clear 43 6 32 0 66 66 NE 9 15 29.92 1013 7 11 N/A
9:50 pm 21:50 Mostly Clear 41 5 32 0 70 70 NE 9 15 29.92 1013 7 11 N/A
10:20 pm 22:20 Mostly Clear 37 3 32 0 81 81 ENE 7 11 29.89 1012 7 11 N/A

Powered by AerisWeather